TimeMST,TemperatureF,Dew PointF,Humidity,Sea Level PressureIn,VisibilityMPH,Wind Direction,Wind SpeedMPH,Gust SpeedMPH,PrecipitationIn,Events,Conditions,WindDirDegrees,DateUTC
12:15 AM,32.0,32.0,100,29.98,10.0,West,3.5,-,N/A,,Overcast,280,2013-02-22 07:15:00
12:35 AM,32.0,32.0,100,30.00,10.0,Calm,Calm,-,N/A,,Overcast,0,2013-02-22 07:35:00
12:55 AM,32.0,32.0,100,30.00,10.0,NE,4.6,-,N/A,,Overcast,40,2013-02-22 07:55:00
1:15 AM,32.0,30.2,93,30.00,10.0,NE,5.8,-,N/A,,Overcast,40,2013-02-22 08:15:00
1:35 AM,32.0,30.2,93,29.98,10.0,ENE,5.8,-,N/A,,Scattered Clouds,60,2013-02-22 08:35:00
1:55 AM,30.2,28.4,93,29.99,10.0,NNE,6.9,-,N/A,,Clear,30,2013-02-22 08:55:00
2:15 AM,32.0,28.4,87,29.98,10.0,ENE,8.1,-,N/A,,Clear,60,2013-02-22 09:15:00
2:35 AM,30.2,28.4,93,29.98,10.0,NE,5.8,-,N/A,,Clear,50,2013-02-22 09:35:00
2:55 AM,30.2,28.4,93,29.98,10.0,NE,8.1,-,N/A,,Clear,40,2013-02-22 09:55:00
3:15 AM,30.2,28.4,93,29.98,10.0,NE,9.2,-,N/A,,Mostly Cloudy,40,2013-02-22 10:15:00
3:35 AM,30.2,26.6,86,29.99,10.0,NE,8.1,-,N/A,,Mostly Cloudy,50,2013-02-22 10:35:00
3:55 AM,30.2,26.6,86,29.98,10.0,NE,8.1,-,N/A,,Scattered Clouds,40,2013-02-22 10:55:00
4:15 AM,28.4,26.6,93,29.99,10.0,NNE,8.1,-,N/A,,Scattered Clouds,30,2013-02-22 11:15:00
4:35 AM,28.4,24.8,86,30.00,10.0,NNE,10.4,-,N/A,,Clear,30,2013-02-22 11:35:00
4:55 AM,28.4,23.0,80,30.00,10.0,NNE,8.1,-,N/A,,Clear,30,2013-02-22 11:55:00
5:15 AM,28.4,24.8,86,30.00,10.0,NE,8.1,-,N/A,,Clear,40,2013-02-22 12:15:00
5:55 AM,26.6,23.0,86,30.00,10.0,NE,8.1,-,N/A,,Clear,40,2013-02-22 12:55:00
6:15 AM,26.6,23.0,86,30.01,10.0,NNE,6.9,-,N/A,,Clear,30,2013-02-22 13:15:00
6:35 AM,26.6,23.0,86,30.02,10.0,NNE,5.8,-,N/A,,Clear,30,2013-02-22 13:35:00
6:55 AM,28.4,23.0,80,30.02,10.0,Calm,Calm,-,N/A,,Clear,0,2013-02-22 13:55:00
7:15 AM,26.6,23.0,86,30.04,10.0,NE,3.5,-,N/A,,Clear,40,2013-02-22 14:15:00
7:35 AM,28.4,23.0,80,30.04,10.0,NNE,3.5,-,N/A,,Clear,20,2013-02-22 14:35:00
7:55 AM,28.4,26.6,93,30.05,10.0,Calm,Calm,-,N/A,,Clear,0,2013-02-22 14:55:00
8:15 AM,30.2,24.8,80,30.06,10.0,Calm,Calm,-,N/A,,Clear,0,2013-02-22 15:15:00
8:35 AM,32.0,28.4,87,30.06,10.0,ESE,4.6,-,N/A,,Clear,110,2013-02-22 15:35:00
8:55 AM,32.0,28.4,87,30.07,10.0,ESE,3.5,-,N/A,,Clear,110,2013-02-22 15:55:00
9:15 AM,32.0,28.4,87,30.07,10.0,SE,3.5,-,N/A,,Clear,140,2013-02-22 16:15:00
9:35 AM,32.0,30.2,93,30.07,10.0,Calm,Calm,-,N/A,,Clear,0,2013-02-22 16:35:00
9:55 AM,33.8,32.0,93,30.08,10.0,Calm,Calm,-,N/A,,Mostly Cloudy,0,2013-02-22 16:55:00
10:15 AM,33.8,32.0,93,30.07,10.0,SE,4.6,-,N/A,,Mostly Cloudy,130,2013-02-22 17:15:00
10:35 AM,33.8,28.4,81,30.08,10.0,NW,4.6,-,N/A,,Scattered Clouds,310,2013-02-22 17:35:00
10:55 AM,33.8,26.6,75,30.08,10.0,NW,3.5,-,N/A,,Scattered Clouds,320,2013-02-22 17:55:00
11:15 AM,33.8,26.6,75,30.09,10.0,West,3.5,-,N/A,,Clear,280,2013-02-22 18:15:00
11:35 AM,35.6,28.4,75,30.09,10.0,Calm,Calm,-,N/A,,Scattered Clouds,0,2013-02-22 18:35:00
11:55 AM,37.4,30.2,75,30.09,10.0,South,3.5,-,N/A,,Scattered Clouds,190,2013-02-22 18:55:00
12:15 PM,37.4,28.4,70,30.08,10.0,Calm,Calm,-,N/A,,Scattered Clouds,0,2013-02-22 19:15:00
12:35 PM,39.2,28.4,65,30.09,10.0,Calm,Calm,-,N/A,,Clear,0,2013-02-22 19:35:00
12:55 PM,39.2,28.4,65,30.08,10.0,West,6.9,-,N/A,,Clear,270,2013-02-22 19:55:00
1:15 PM,39.2,28.4,65,30.07,10.0,Calm,Calm,-,N/A,,Clear,0,2013-02-22 20:15:00
1:35 PM,41.0,28.4,61,30.08,10.0,NW,3.5,-,N/A,,Clear,310,2013-02-22 20:35:00
1:55 PM,41.0,28.4,61,30.07,10.0,Calm,Calm,-,N/A,,Clear,0,2013-02-22 20:55:00
2:15 PM,42.8,30.2,61,30.06,10.0,West,4.6,-,N/A,,Clear,260,2013-02-22 21:15:00
2:35 PM,46.4,30.2,53,30.05,10.0,SSW,3.5,-,N/A,,Clear,200,2013-02-22 21:35:00
2:55 PM,44.6,26.6,49,30.04,10.0,SSW,4.6,-,N/A,,Clear,210,2013-02-22 21:55:00
3:15 PM,46.4,24.8,43,30.04,10.0,West,3.5,-,N/A,,Clear,260,2013-02-22 22:15:00
3:35 PM,44.6,23.0,43,30.04,10.0,Calm,Calm,-,N/A,,Clear,0,2013-02-22 22:35:00
3:55 PM,46.4,23.0,40,30.03,10.0,South,5.8,-,N/A,,Clear,180,2013-02-22 22:55:00
4:15 PM,46.4,21.2,37,30.04,10.0,SE,3.5,-,N/A,,Clear,130,2013-02-22 23:15:00
4:35 PM,48.2,23.0,37,30.04,10.0,Calm,Calm,-,N/A,,Clear,0,2013-02-22 23:35:00
4:55 PM,46.4,26.6,46,30.04,10.0,SSE,9.2,-,N/A,,Clear,160,2013-02-22 23:55:00
5:15 PM,44.6,28.4,53,30.04,10.0,SSE,12.7,-,N/A,,Clear,150,2013-02-23 00:15:00
5:35 PM,42.8,28.4,57,30.05,10.0,SSE,8.1,-,N/A,,Clear,160,2013-02-23 00:35:00
5:55 PM,42.8,28.4,57,30.06,10.0,SSE,8.1,-,N/A,,Clear,160,2013-02-23 00:55:00
6:15 PM,41.0,28.4,61,30.07,10.0,SSE,4.6,-,N/A,,Clear,160,2013-02-23 01:15:00
6:35 PM,41.0,28.4,61,30.07,10.0,ESE,4.6,-,N/A,,Clear,120,2013-02-23 01:35:00
6:55 PM,41.0,28.4,61,30.08,10.0,ENE,4.6,-,N/A,,Clear,60,2013-02-23 01:55:00
7:15 PM,39.2,28.4,65,30.09,10.0,NE,8.1,-,N/A,,Clear,50,2013-02-23 02:15:00
7:35 PM,39.2,28.4,65,30.09,10.0,ENE,8.1,-,N/A,,Clear,60,2013-02-23 02:35:00
7:55 PM,37.4,28.4,70,30.10,10.0,NE,10.4,-,N/A,,Clear,50,2013-02-23 02:55:00
8:15 PM,37.4,28.4,70,30.11,10.0,NE,9.2,-,N/A,,Clear,40,2013-02-23 03:15:00
8:35 PM,37.4,28.4,70,30.11,10.0,ENE,5.8,-,N/A,,Clear,60,2013-02-23 03:35:00
8:55 PM,39.2,26.6,61,30.11,10.0,ENE,5.8,-,N/A,,Clear,60,2013-02-23 03:55:00
9:15 PM,37.4,26.6,65,30.11,10.0,ENE,6.9,-,N/A,,Clear,60,2013-02-23 04:15:00
9:35 PM,37.4,24.8,60,30.11,10.0,NE,6.9,-,N/A,,Clear,50,2013-02-23 04:35:00
9:55 PM,37.4,23.0,56,30.12,10.0,ENE,10.4,-,N/A,,Clear,60,2013-02-23 04:55:00
10:15 PM,37.4,23.0,56,30.12,10.0,ENE,6.9,-,N/A,,Clear,70,2013-02-23 05:15:00
10:35 PM,37.4,23.0,56,30.12,10.0,ENE,4.6,-,N/A,,Clear,70,2013-02-23 05:35:00
10:55 PM,37.4,21.2,52,30.12,10.0,NE,10.4,-,N/A,,Clear,40,2013-02-23 05:55:00
11:15 PM,35.6,21.2,56,30.12,10.0,NE,10.4,-,N/A,,Clear,40,2013-02-23 06:15:00
11:35 PM,35.6,21.2,56,30.12,10.0,NE,9.2,-,N/A,,Clear,50,2013-02-23 06:35:00
11:55 PM,35.6,19.4,52,30.12,10.0,NE,9.2,-,N/A,,Clear,40,2013-02-23 06:55:00